"Pseudo-MPEC" for SWC0001

Created 2023 Jun 12 16:22:05 UT using Find_Orb

Click here for an explanation of pseudo-MPECs

 
 Astrometry: 
     SWC0001*KB2023 05 28Crc#$AAstrometryU#qkAxOQredacted;`8Aom;Q,ulclickB[62859
     SWC0001 KB2023 05 28*\U#yhere2[@g_l2Zja1PSRFGQ-vxO1x?C(Vx_UeAv,Zh?:XZ%b4859
     SWC0001 KB2023 05 28Wb4X:ATlpfj6/LlbfG'aw3forAe,[Cg:`UexplanationqHi)e].859

Station data:
(859) Wykrota Observatory-CEAMIG  (S19.823980 W43.690300)  Brazil. 0.30-m
   Schmidt-Cassegrain.

Orbital elements:  SWC0001
   Perihelion 2023 Nov 23.53325 +/- 197 TT = 12:47:53 (JD 2460272.03325)
Epoch 2023 May 28.0 TT = JDT 2460092.5   Earth MOID: 0.1646      AutoNEOCP
M 221.62699354 +/- 110              (J2000 ecliptic)
n   0.77073747 +/- 0.339            Peri.  119.62759 +/- 70
a   1.17814406 +/- 0.346            Node   264.58710 +/- 39
e   0.0093781 +/- 0.253             Incl.    3.34233 +/- 33
P   1.28/467.08d           H 22.50  G  0.15   U 12.0  SR
q 1.16709524 +/- 0.688    Q 1.18919288 +/- 28
From 3 observations 2023 May 28 (16.5 min); mean residual 0".07
Residuals in arcseconds: 
230528 859  .03+  .06-    230528 859  .06-  .13+    230528 859  .03+  .06-    

Ephemerides (geocentric):
Date (UTC) HH   RA             Dec           delta  r     elong  mag " sig PA
---- --------  ------------   ------------  ------ ------ -----  --- --------
2023 06 12 16  15 25 07.826   -21 34 48.94  .18643 1.1847 153.1 20.4  32d  19
2023 06 12 17  15 25 06.368   -21 33 57.20  .18648 1.1847 153.1 20.4  32d  19
2023 06 12 18  15 25 04.917   -21 33 05.51  .18654 1.1847 153.0 20.4  32d  19
2023 06 12 19  15 25 03.474   -21 32 13.86  .18659 1.1847 153.0 20.4  32d  19
2023 06 12 20  15 25 02.039   -21 31 22.25  .18665 1.1847 152.9 20.4  32d  19
2023 06 12 21  15 25 00.611   -21 30 30.68  .18670 1.1847 152.9 20.4  32d  19
2023 06 12 22  15 24 59.191   -21 29 39.16  .18676 1.1847 152.8 20.4  32d  19
2023 06 12 23  15 24 57.778   -21 28 47.69  .18681 1.1847 152.8 20.4  32d  19
2023 06 13 00  15 24 56.373   -21 27 56.25  .18687 1.1847 152.7 20.4  32d  19
2023 06 13 01  15 24 54.975   -21 27 04.86  .18692 1.1847 152.7 20.4  32d  19
2023 06 13 02  15 24 53.585   -21 26 13.52  .18698 1.1847 152.7 20.4  32d  19
2023 06 13 03  15 24 52.203   -21 25 22.22  .18704 1.1847 152.6 20.4  32d  19
2023 06 13 04  15 24 50.828   -21 24 30.96  .18709 1.1847 152.6 20.4  32d  19
2023 06 13 05  15 24 49.461   -21 23 39.75  .18715 1.1847 152.5 20.4  32d  19
2023 06 13 06  15 24 48.101   -21 22 48.58  .18720 1.1847 152.5 20.4  32d  19
2023 06 13 07  15 24 46.749   -21 21 57.46  .18726 1.1847 152.4 20.4  32d  19
2023 06 13 08  15 24 45.405   -21 21 06.38  .18731 1.1847 152.4 20.4  32d  19
2023 06 13 09  15 24 44.068   -21 20 15.34  .18737 1.1847 152.3 20.4  32d  19
2023 06 13 10  15 24 42.739   -21 19 24.35  .18743 1.1847 152.3 20.4  32d  19
2023 06 13 11  15 24 41.417   -21 18 33.41  .18748 1.1847 152.2 20.4  32d  19
2023 06 13 12  15 24 40.103   -21 17 42.51  .18754 1.1846 152.2 20.4  32d  19
2023 06 13 13  15 24 38.797   -21 16 51.66  .18760 1.1846 152.1 20.4  32d  19
2023 06 13 14  15 24 37.498   -21 16 00.85  .18765 1.1846 152.1 20.4  32d  19
2023 06 13 15  15 24 36.207   -21 15 10.09  .18771 1.1846 152.0 20.4  32d  19
2023 06 13 16  15 24 34.923   -21 14 19.38  .18777 1.1846 152.0 20.4  32d  19
2023 06 13 17  15 24 33.647   -21 13 28.71  .18783 1.1846 151.9 20.4  32d  19
2023 06 13 18  15 24 32.379   -21 12 38.08  .18788 1.1846 151.9 20.4  32d  19
2023 06 13 19  15 24 31.118   -21 11 47.50  .18794 1.1846 151.9 20.4  32d  20
2023 06 13 20  15 24 29.865   -21 10 56.97  .18800 1.1846 151.8 20.4  32d  20
2023 06 13 21  15 24 28.620   -21 10 06.49  .18806 1.1846 151.8 20.4  32d  20
2023 06 13 22  15 24 27.382   -21 09 16.05  .18811 1.1846 151.7 20.4  32d  20
2023 06 13 23  15 24 26.152   -21 08 25.66  .18817 1.1846 151.7 20.4  32d  20
2023 06 14 00  15 24 24.930   -21 07 35.31  .18823 1.1846 151.6 20.4  32d  20
2023 06 14 01  15 24 23.715   -21 06 45.01  .18829 1.1846 151.6 20.4  32d  20
2023 06 14 02  15 24 22.508   -21 05 54.76  .18835 1.1846 151.5 20.4  32d  20
2023 06 14 03  15 24 21.308   -21 05 04.56  .18841 1.1846 151.5 20.4  32d  20
2023 06 14 04  15 24 20.117   -21 04 14.40  .18846 1.1846 151.4 20.4  32d  20
2023 06 14 05  15 24 18.933   -21 03 24.29  .18852 1.1846 151.4 20.4  32d  20
2023 06 14 06  15 24 17.756   -21 02 34.23  .18858 1.1846 151.3 20.4  32d  20
2023 06 14 07  15 24 16.587   -21 01 44.21  .18864 1.1846 151.3 20.4  32d  20
2023 06 14 08  15 24 15.426   -21 00 54.24  .18870 1.1845 151.2 20.4  33d  20
2023 06 14 09  15 24 14.273   -21 00 04.32  .18876 1.1845 151.2 20.4  33d  20
2023 06 14 10  15 24 13.127   -20 59 14.45  .18882 1.1845 151.2 20.4  33d  20
2023 06 14 11  15 24 11.989   -20 58 24.63  .18888 1.1845 151.1 20.4  33d  20
2023 06 14 12  15 24 10.859   -20 57 34.85  .18894 1.1845 151.1 20.4  33d  20
2023 06 14 13  15 24 09.736   -20 56 45.13  .18900 1.1845 151.0 20.4  33d  20
2023 06 14 14  15 24 08.621   -20 55 55.45  .18906 1.1845 151.0 20.4  33d  20
2023 06 14 15  15 24 07.514   -20 55 05.82  .18912 1.1845 150.9 20.4  33d  20